Kiana, AK

2:02 AM AKDT on October 23, 2017 (GMT -0800)
Baker Memorial

Weather History for PAIK - April, 2013

Change the Weather History Date:

Tuesday, April 23, 2013

  Actual Average (PASK) Record (PASK)
Temperature  
Mean Temperature 26 °F -  
Max Temperature 28 °F 25 °F 42 °F (2008)
Min Temperature 23 °F 11 °F -5 °F (1997)
Degree Days  
Heating Degree Days 38    
Moisture  
Dew Point 23 °F    
Average Humidity 86    
Maximum Humidity 96    
Minimum Humidity 69    
Precipitation  
Precipitation 0.00 in - - ()
Sea Level Pressure  
Sea Level Pressure 30.37 in    
Wind  
Wind Speed 6 mph (SW)    
Max Wind Speed 15 mph    
Max Gust Speed 21 mph    
Visibility 6 miles    
Events Snow    
Averages and records for this station are not official NWS values.
T = Trace of Precipitation, MM = Missing Value Source: NWS Daily Summary

Daily Weather History Graph

Daily Weather History Graph

Search for Another Location

Airport or City:

Trip Planner

Search our weather history database for the weather conditions in past years. The results will help you decide how hot, cold, wet, or windy it might be!

Date:

Astronomy

Apr. 23, 2013 Rise Set
Actual Time 6:21 AM AKDT 11:01 PM AKDT
Civil Twilight 5:05 AM AKDT 12:18 AM AKDT
Nautical Twilight 3:12 AM AKDT 2:07 AM AKDT
Astronomical Twilight Sun does not rise Sun does not rise
Moon 8:28 PM AKDT 5:55 AM AKDT
Length of Visible Light 19h 12m
Length of Day
16h 40m
Waxing Gibbous, 95% of the Moon is Illuminated
Apr 23
Waxing Gibbous
Apr 25
Full
May 2
Last Quarter
May 9
New
May 17
First Quarter

Hourly Weather History & Observations

Time (AKDT) Temp. Windchill Dew Point Humidity Pressure Visibility Wind Dir Wind Speed Gust Speed Precip Events Conditions
12:01 AM 24.8 °F 20.5 °F 21.2 °F 86% 30.37 in 4.0 mi SSW 3.5 mph - 0.00 in Snow Light Snow
12:10 AM 24.8 °F 20.5 °F 21.2 °F 86% 30.37 in 5.0 mi WSW 3.5 mph - 0.00 in Snow Light Snow
12:21 AM 23.0 °F 17.0 °F 21.2 °F 93% 30.37 in 8.0 mi WSW 4.6 mph - 0.00 in Snow Light Snow
1:01 AM 24.1 °F 19.7 °F 21.0 °F 88% 30.51 in 9.0 mi SW 3.5 mph - 0.00 in Snow Light Snow
2:01 AM 24.1 °F - 21.0 °F 88% 30.51 in 10.0 mi Calm Calm - 0.00 in   Overcast
3:01 AM 24.1 °F - 21.0 °F 88% 30.50 in 10.0 mi Calm Calm - N/A   Overcast
3:45 AM 24.8 °F 19.1 °F 21.2 °F 86% 30.37 in 10.0 mi WNW 4.6 mph - N/A   Overcast
4:01 AM 24.1 °F 19.7 °F 21.0 °F 88% 30.51 in 9.0 mi WNW 3.5 mph - 0.00 in Snow Light Snow
4:22 AM 24.8 °F - 21.2 °F 86% 30.38 in 10.0 mi Calm Calm - 0.00 in   Overcast
5:01 AM 24.1 °F - 21.0 °F 88% 30.51 in 10.0 mi Calm Calm - 0.00 in   Overcast
6:01 AM 24.1 °F - 19.9 °F 84% 30.51 in 10.0 mi Calm Calm - N/A   Overcast
7:01 AM 24.8 °F 19.1 °F 21.2 °F 86% 30.37 in 10.0 mi South 4.6 mph - N/A   Overcast
7:07 AM 24.1 °F 17.0 °F 21.0 °F 88% 30.50 in 10.0 mi South 5.8 mph - N/A   Overcast
8:01 AM 24.1 °F 13.7 °F 21.0 °F 88% 30.50 in 10.0 mi SW 10.4 mph - N/A   Overcast
8:20 AM 24.8 °F 16.9 °F 21.2 °F 86% 30.37 in 10.0 mi SW 6.9 mph - N/A   Overcast
9:01 AM 24.1 °F 16.0 °F 19.9 °F 84% 30.50 in 10.0 mi WSW 6.9 mph - N/A   Overcast
10:01 AM 25.0 °F 15.5 °F 19.9 °F 81% 30.50 in 9.0 mi SW 9.2 mph - N/A   Overcast
10:11 AM 24.8 °F 17.9 °F 19.4 °F 80% 30.37 in 10.0 mi SW 5.8 mph - N/A   Overcast
11:01 AM 24.8 °F 15.3 °F 19.4 °F 80% 30.37 in 10.0 mi SW 9.2 mph 16.1 mph N/A   Overcast
12:01 PM 26.1 °F 16.2 °F 21.0 °F 81% 30.51 in 10.0 mi SW 10.4 mph - N/A   Overcast
12:09 PM 26.6 °F 16.2 °F 21.2 °F 80% 30.37 in 10.0 mi SW 11.5 mph - N/A   Overcast
1:01 PM 26.1 °F 14.5 °F 21.0 °F 81% 30.51 in 10.0 mi SW 13.8 mph - N/A   Overcast
2:01 PM 28.0 °F 19.3 °F 21.0 °F 75% 30.51 in 10.0 mi SW 9.2 mph - N/A   Overcast
2:20 PM 30.2 °F 24.3 °F 21.2 °F 69% 30.38 in 10.0 mi Variable 5.8 mph - N/A   Overcast
2:40 PM 30.2 °F 25.4 °F 23.0 °F 75% 30.38 in 6.0 mi West 4.6 mph - N/A   Haze
3:01 PM 28.4 °F 22.2 °F 23.0 °F 80% 30.37 in 2.5 mi SSW 5.8 mph - 0.00 in Snow Light Snow
3:18 PM 28.4 °F 24.6 °F 23.0 °F 80% 30.37 in 5.0 mi WSW 3.5 mph - 0.00 in Snow Light Snow
3:53 PM 28.4 °F 22.2 °F 21.2 °F 74% 30.36 in 10.0 mi SSW 5.8 mph - 0.00 in   Overcast
4:01 PM 28.9 °F 21.1 °F 21.9 °F 75% 30.49 in 10.0 mi SSW 8.1 mph - 0.00 in   Overcast
5:01 PM 30.0 °F 21.1 °F 23.0 °F 75% 30.48 in 10.0 mi SSW 10.4 mph - N/A   Scattered Clouds
6:01 PM 30.0 °F 23.2 °F 23.0 °F 75% 30.46 in 10.0 mi SW 6.9 mph - N/A   Mostly Cloudy
6:12 PM 28.4 °F 19.7 °F 23.0 °F 80% 30.32 in 9.0 mi SSW 9.2 mph - 0.00 in Snow Light Snow
6:25 PM 28.4 °F 19.1 °F 24.8 °F 86% 30.32 in 4.0 mi SSW 10.4 mph - 0.00 in Snow Light Snow
6:57 PM 28.4 °F 17.5 °F 24.8 °F 86% 30.31 in 2.0 mi SW 13.8 mph 19.6 mph 0.00 in Snow Light Snow
7:01 PM 28.4 °F 18.5 °F 24.8 °F 86% 30.31 in 1.8 mi SW 11.5 mph 19.6 mph 0.00 in Snow Light Snow
7:11 PM 28.4 °F 17.5 °F 24.8 °F 86% 30.30 in 2.5 mi SW 13.8 mph 19.6 mph 0.00 in Snow Light Snow
7:32 PM 28.0 °F 16.5 °F 24.1 °F 85% 30.43 in 2.5 mi SSW 15.0 mph - 0.00 in Snow Light Snow
7:34 PM 26.6 °F 15.2 °F 24.8 °F 93% 30.29 in 2.5 mi SSW 13.8 mph 20.7 mph 0.00 in Snow Light Snow
7:40 PM 26.6 °F 16.2 °F 24.8 °F 93% 30.30 in 1.8 mi SSW 11.5 mph 20.7 mph 0.00 in Snow Light Snow
7:46 PM 26.6 °F 15.7 °F 24.8 °F 93% 30.29 in 2.0 mi SSW 12.7 mph - 0.00 in Snow Light Snow
8:01 PM 27.0 °F 17.3 °F 25.0 °F 92% 30.42 in 2.5 mi SW 10.4 mph - 0.00 in Snow Light Snow
8:38 PM 28.4 °F 18.5 °F 24.8 °F 86% 30.28 in 1.2 mi SW 11.5 mph 16.1 mph 0.00 in Snow Light Snow
8:45 PM 28.4 °F 19.1 °F 24.8 °F 86% 30.28 in 1.0 mi SW 10.4 mph - 0.00 in Snow Light Snow
9:01 PM 28.4 °F 22.2 °F 26.6 °F 93% 30.27 in 0.8 mi SSW 5.8 mph - 0.00 in Snow Light Snow
9:15 PM 28.4 °F 20.4 °F 26.6 °F 93% 30.26 in 1.0 mi SSW 8.1 mph - 0.00 in Snow Light Snow
9:31 PM 28.4 °F 20.4 °F 26.6 °F 93% 30.25 in 0.8 mi SSW 8.1 mph - 0.00 in Snow Light Snow
9:54 PM 28.4 °F 20.4 °F 26.6 °F 93% 30.24 in 1.2 mi SW 8.1 mph - 0.00 in Snow Light Snow
10:01 PM 28.0 °F 19.3 °F 27.0 °F 96% 30.38 in 1.5 mi SW 9.2 mph - 0.00 in Snow Light Snow
10:28 PM 28.4 °F 18.5 °F 26.6 °F 93% 30.24 in 1.0 mi SW 11.5 mph 20.7 mph 0.00 in Snow Light Snow
10:33 PM 28.4 °F 21.2 °F 26.6 °F 93% 30.24 in 0.8 mi WSW 6.9 mph 16.1 mph 0.00 in Snow Light Snow
11:01 PM 28.0 °F 20.0 °F 27.0 °F 96% 30.37 in 0.8 mi West 8.1 mph - 0.00 in Snow Light Snow
11:15 PM 28.4 °F 20.4 °F 26.6 °F 93% 30.24 in 1.0 mi WSW 8.1 mph - 0.00 in Snow Light Snow
11:20 PM 28.4 °F 18.5 °F 26.6 °F 93% 30.23 in 1.2 mi WSW 11.5 mph - 0.00 in Snow Light Snow
11:37 PM 28.4 °F 19.7 °F 26.6 °F 93% 30.23 in 2.0 mi WSW 9.2 mph - 0.00 in Snow Light Snow
11:43 PM 28.4 °F 18.5 °F 26.6 °F 93% 30.23 in 1.8 mi WSW 11.5 mph - 0.00 in Snow Light Snow
11:54 PM 28.4 °F 18.0 °F 26.6 °F 93% 30.23 in 2.5 mi WSW 12.7 mph - 0.00 in Snow Light Snow